Location: Observatoire
(46.1952°N, 5.3391°E)
Time: 01:38:52
(UTC+01:00)

A-11 Canister half - Pass Details

Date: 20 February 2026
Orbit: 1525 x 1683 km, 47.3° (Epoch: 9 March)

Event Time Altitude Azimuth Distance (km) Brightness Sun altitude
Rises 23:55:53 0° 291° (WNW) 4,679 11.9 -52.8°
Reaches altitude 10° 23:59:30 10° 280° (W) 3,700 11.2 -53.1°
Enters shadow 00:00:05 12° 277° (W) 3,556 11.0 -53.1°
Maximum altitude 00:06:47 27° 228° (SW) 2,639 - -53.5°
Drops below altitude 10° 00:14:12 10° 175° (S) 3,755 - -53.9°
Sets 00:17:56 0° 164° (SSE) 4,761 - -54.0°
